[[{"header":{"parameterUnit":"m.s-1","parameterCategory":1,"la1":30.2991,"la2":30.254,"lo1":-89.0895,"lo2":-89.0444,"dy":0.0017,"dx":0.0017,"nx":28,"ny":28,"refTime":"2025-04-02T03:00:00:Z","depth":0,"parameterNumber":2,"parameterNumberName":"U-component_of_WINDS"},"data":[0,0,0,0,0,0,0,0,0,0,0,0,0,0,0,0,0,0,0,0,0,0,0,0,0,0,0,0,0,0,0,0,0,0,0,0,0,0,0,0,0,0,0,0,0,0,0,0,0,0,0,0,0,0,0,0,0,0,-3.9411,-3.9413,0,-3.9546,-3.9548,-3.9549,-3.9582,-3.9581,-3.958,-3.9579,-3.9717,-3.9721,-3.9725,0,0,0,0,0,0,0,0,0,0,0,0,0,-3.9181,-3.9185,-3.9411,-3.9413,-3.9414,-3.9546,-3.9548,-3.955,-3.9582,-3.9581,-3.958,-3.9579,-3.9715,-3.972,-3.9726,0,0,0,0,0,0,0,0,0,0,0,0,0,-3.9295,-3.9186,-3.9411,-3.9446,-3.9451,-3.9546,-3.9548,-3.955,-3.9582,-3.9581,-3.9579,-3.9578,-3.9713,-3.972,-3.9727,-3.9795,0,0,-3.9747,-3.975,0,0,0,0,0,0,0,0,-3.9288,-3.9303,-3.9439,-3.9444,-3.9449,-3.9546,-3.9517,-3.9632,-3.9582,-3.9532,-3.9579,-3.9577,-3.9661,-3.9672,-3.97,-3.9802,-3.9808,-3.9748,-3.9752,-3.9755,-3.9757,0,0,0,0,0,0,0,-3.928,-3.9298,-3.9464,-3.9441,-3.9447,-3.9456,-3.947,-3.9539,-3.9602,-3.9536,-3.9539,-3.9555,-3.9663,-3.9693,-3.9704,-3.981,-3.9748,-3.9754,-3.9758,-3.976,-3.9976,-3.9977,0,0,0,0,0,0,-3.9266,-3.9291,-3.946,-3.9469,-3.9364,-3.9461,-3.9477,-3.9516,-3.9602,-3.9613,-3.9556,-3.9556,-3.9683,-3.9696,-3.9708,-3.9795,-3.9755,-3.9761,-3.9765,-3.9974,-3.9976,-3.9978,0,0,0,0,0,0,-3.9261,-3.9281,-3.9455,-3.9381,-3.9403,-3.9466,-3.951,-3.9519,-3.955,-3.9616,-3.9628,-3.9575,-3.9682,-3.9699,-3.9774,-3.98,-3.9764,-3.977,-3.9972,-3.9975,-3.9977,-3.9967,0,0,0,0,0,0,-3.9255,-3.9279,-3.9306,-3.9381,-3.9407,-3.9517,-3.9511,-3.9523,-3.9561,-3.9563,-3.9637,-3.9648,-3.9682,-3.9764,-3.978,-3.9809,-3.9776,-3.997,-3.9973,-3.9976,-3.9966,-3.9969,-3.9972,0,0,0,0,0,-3.9246,-3.9297,-3.9307,-3.9327,-3.9441,-3.9519,-3.9534,-3.9572,-3.9563,-3.9591,-3.9634,-3.9646,-3.9795,-3.9771,-3.979,-3.9821,-3.9969,-3.9972,-3.9976,-3.9964,-3.9968,-3.9972,0,0,0,0,0,0,-3.9222,-3.9307,-3.9319,-3.9396,-3.945,-3.9524,-3.9559,-3.9575,-3.9633,-3.9631,-3.9676,-3.9693,-3.9765,-3.9801,-3.9772,-3.9893,-3.9882,-3.9889,-3.9866,-3.9871,-3.9874,-3.9863,-3.9781,0,0,0,0,0,-3.9226,-3.9282,-3.9353,-3.9414,-3.9441,-3.9496,-3.9531,-3.9556,-3.9613,-3.9636,-3.9685,-3.974,-3.98,-3.9837,-3.9896,-3.9972,-3.9989,-4.0003,-4.0006,-4.0008,-4.0014,-4.0057,-4.0064,-3.999,-3.999,-3.999,0,0,-3.9234,-3.9287,-3.932,-3.9411,-3.9455,-3.9512,-3.9514,-3.9574,-3.9617,-3.9645,-3.9718,-3.9757,-3.9822,-3.9897,-3.9933,-3.9929,-4.0039,-4.0013,-4.0015,-4.0019,-4.0062,-4.0069,-4.0075,-3.9993,-3.9993,-3.9992,0,0,-3.9277,-3.9323,-3.9379,-3.9425,-3.9493,-3.953,-3.9543,-3.9616,-3.9642,-3.9717,-3.974,-3.9791,-3.9893,-3.9938,-3.9974,-4.0038,-4.0051,-4.0056,-4.0072,-4.0114,-4.012,-4.0125,-4.0147,-4.0154,-4.0061,-4.0061,-4.0061,0,-3.9278,-3.9364,-3.9406,-3.9465,-3.9504,-3.9534,-3.9591,-3.9633,-3.9717,-3.9744,-3.9739,-3.9867,-3.9913,-4.0,-4.0016,-4.0045,-4.0061,-4.0046,-4.0116,-4.0122,-4.0127,-4.0148,-4.0157,-4.0061,-4.0061,-4.0061,-4.0061,0,-3.9362,-3.9422,-3.9459,-3.9539,-3.9583,-3.9641,-3.9692,-3.9731,-3.9753,-3.979,-3.9867,-3.9924,-3.9994,-4.0017,-4.0039,-4.0108,-4.0103,-4.0107,-4.0096,-4.0133,-4.0154,-4.0163,-4.0061,-4.0061,-4.0061,-4.0061,0,0,-3.939,-3.9495,-3.9508,-3.9545,-3.9624,-3.9671,-3.9731,-3.9801,-3.9834,-3.9892,-3.9942,-4.0029,-4.0033,-4.0074,-4.0102,-4.0139,-4.0185,-4.0138,-4.014,-4.0143,-4.0264,-4.026,-4.0268,-4.0195,-4.0197,-4.0199,-4.0258,0,-3.9442,-3.9549,-3.959,-3.9678,-3.9733,-3.9764,-3.9816,-3.9871,-3.9908,-3.9961,-4.0002,-4.0062,-4.0063,-4.0088,-4.0127,-4.0171,-4.0209,-4.0168,-4.0243,-4.0245,-4.0223,-4.0279,-4.0275,-4.0328,-4.0267,-4.0268,-4.0269,0,-3.9516,-3.9575,-3.9668,-3.9742,-3.9767,-3.9813,-3.988,-3.9931,-3.9994,-4.0018,-4.0066,-4.0091,-4.0156,-4.0143,-4.0232,-4.0203,-4.0237,-4.0264,-4.0267,-4.0273,-4.0257,-4.0286,-4.0346,-4.0353,-4.0283,-4.0282,-4.0281,0,-3.9526,-3.963,-3.9699,-3.973,-3.9817,-3.9849,-3.9887,-3.9948,-3.9988,-4.0048,-4.0074,-4.014,-4.0176,-4.0227,-4.0271,-4.0258,-4.0356,-4.0347,-4.0377,-4.0376,-4.0394,-4.0392,-4.0459,-4.0419,-4.0419,-4.0419,-4.0419,0,-3.9579,-3.9634,-3.9705,-3.9747,-3.9811,-3.9858,-3.9919,-3.9959,-4.0014,-4.0065,-4.0097,-4.0144,-4.0199,-4.0254,-4.0288,-4.0357,-4.0373,-4.0395,-4.0403,-4.0391,-4.0388,-4.0412,-4.0408,-4.0421,-4.0421,-4.042,-4.042,0,-3.96,-3.9649,-3.9727,-3.9804,-3.9825,-3.9868,-3.9934,-3.9977,-4.0016,-4.0081,-4.0098,-4.016,-4.0226,-4.0276,-4.0361,-4.0384,-4.0457,-4.0466,-4.0436,-4.0439,-4.0467,-4.0463,-4.0549,-4.0563,-4.0515,-4.0516,-4.0516,0,-3.9629,-3.9672,-3.9755,-3.9791,-3.9829,-3.9888,-3.9929,-3.9977,-4.0019,-4.0095,-4.0128,-4.0197,-4.0254,-4.0358,-4.0411,-4.0477,-4.0487,-4.0513,-4.0497,-4.0484,-4.0486,-4.0482,-4.0487,-4.0514,-4.0514,-4.0515,-4.0515,0,-3.9675,-3.9698,-3.9756,-3.9823,-3.9871,-3.9926,-3.9982,-4.001,-4.0069,-4.0114,-4.0182,-4.0227,-4.0315,-4.0383,-4.0454,-4.0494,-4.0514,-4.052,-4.053,-4.0517,-4.0497,-4.0508,-4.044,-4.0517,-4.0517,-4.0517,-4.0517,-4.0517,-3.97,-3.974,-3.9805,-3.9869,-3.9916,-3.9968,-4.0012,-4.0058,-4.0116,-4.0191,-4.0217,-4.0287,-4.0351,-4.0449,-4.0489,-4.0546,-4.0545,-4.056,-4.0564,-4.0566,-4.0565,-4.049,-4.0559,-4.0559,-4.0559,-4.0559,-4.0559,0,-3.9747,-3.979,-3.9849,-3.9926,-3.9977,-3.9993,-4.0056,-4.0097,-4.0159,-4.0216,-4.0273,-4.0351,-4.0418,-4.0477,-4.0546,-4.0579,-4.0591,-4.0596,-4.0593,-4.0602,-4.0562,-4.0545,-4.0586,-4.0586,-4.0586,-4.0586,-4.0586,-4.0586,-3.9777,-3.9846,-3.9877,-3.997,-4.0014,-4.0083,-4.0118,-4.0166,-4.0212,-4.0299,-4.0354,-4.0393,-4.0451,-4.0525,-4.0587,-4.0603,-4.0626,-4.0629,-4.0647,-4.0608,-4.0604,-4.0601,-4.0586,-4.0634,-4.0634,-4.0682,-4.0682,-4.0682]},{"header":{"parameterUnit":"m.s-1","parameterCategory":1,"la1":30.2991,"la2":30.254,"lo1":-89.0895,"lo2":-89.0444,"dy":0.0017,"dx":0.0017,"nx":28,"ny":28,"refTime":"2025-04-02T03:00:00:Z","depth":0,"parameterNumber":3,"parameterNumberName":"V-component_of_WINDS"},"data":[0,0,0,0,0,0,0,0,0,0,0,0,0,0,0,0,0,0,0,0,0,0,0,0,0,0,0,0,0,0,0,0,0,0,0,0,0,0,0,0,0,0,0,0,0,0,0,0,0,0,0,0,0,0,0,0,0,0,4.1857,4.1857,0,4.1925,4.1925,4.1926,4.1956,4.1955,4.1955,4.1955,4.2024,4.2026,4.2028,0,0,0,0,0,0,0,0,0,0,0,0,0,4.1755,4.1757,4.1856,4.1857,4.1858,4.1924,4.1925,4.1926,4.1956,4.1955,4.1955,4.1955,4.2024,4.2026,4.2028,0,0,0,0,0,0,0,0,0,0,0,0,0,4.1809,4.1757,4.1856,4.1881,4.1884,4.1924,4.1925,4.1927,4.1956,4.1955,4.1955,4.1955,4.2023,4.2026,4.2029,4.205,0,0,4.2037,4.2039,0,0,0,0,0,0,0,0,4.1805,4.1812,4.1876,4.1879,4.1882,4.1931,4.1915,4.1968,4.1956,4.1928,4.1955,4.1955,4.1994,4.1999,4.2012,4.2053,4.2056,4.2038,4.204,4.2041,4.2042,0,0,0,0,0,0,0,4.1802,4.1809,4.1883,4.1877,4.1881,4.1889,4.1897,4.1925,4.1961,4.1931,4.1933,4.1941,4.1995,4.2009,4.2014,4.2057,4.2038,4.204,4.2042,4.2043,4.2124,4.2124,0,0,0,0,0,0,4.1794,4.1806,4.1881,4.1885,4.1843,4.1891,4.19,4.1916,4.1961,4.1967,4.1941,4.1942,4.2004,4.201,4.2016,4.2047,4.2041,4.2043,4.2045,4.2123,4.2124,4.2124,0,0,0,0,0,0,4.1791,4.18,4.1878,4.1847,4.1857,4.1893,4.1911,4.1917,4.1931,4.1968,4.1975,4.1948,4.2004,4.2012,4.2042,4.205,4.2045,4.2047,4.2123,4.2123,4.2124,4.2106,0,0,0,0,0,0,4.1788,4.1799,4.1806,4.1846,4.1859,4.1902,4.1912,4.1919,4.1936,4.1938,4.1977,4.1983,4.2005,4.2038,4.2045,4.2054,4.205,4.2122,4.2123,4.2124,4.2106,4.2106,4.2106,0,0,0,0,0,4.1785,4.1798,4.1807,4.1816,4.1869,4.1903,4.191,4.1934,4.1936,4.1945,4.197,4.1982,4.2048,4.2041,4.2049,4.2058,4.2122,4.2123,4.2124,4.2106,4.2106,4.2106,0,0,0,0,0,0,4.1756,4.1803,4.1814,4.184,4.1867,4.1907,4.1919,4.1933,4.1959,4.196,4.199,4.1998,4.2027,4.2046,4.2037,4.2084,4.2086,4.2089,4.207,4.207,4.207,4.2065,4.2052,0,0,0,0,0,4.1753,4.1776,4.1816,4.1836,4.1849,4.1882,4.1897,4.1914,4.1944,4.1955,4.1982,4.201,4.2038,4.2055,4.2082,4.211,4.212,4.2121,4.2121,4.212,4.2122,4.2142,4.2144,4.2127,4.2127,4.2127,0,0,4.1747,4.1775,4.1788,4.1831,4.1854,4.1879,4.1891,4.1915,4.1935,4.1959,4.199,4.2011,4.2045,4.2075,4.2089,4.2091,4.213,4.2121,4.2121,4.2123,4.2143,4.2145,4.2146,4.2128,4.2128,4.2128,0,0,4.1748,4.1771,4.1791,4.1815,4.1851,4.1873,4.1878,4.1918,4.1933,4.1965,4.1985,4.2008,4.2054,4.2079,4.2097,4.2113,4.2126,4.2121,4.212,4.2139,4.2141,4.2142,4.215,4.2153,4.2123,4.2123,4.2123,0,4.1735,4.1773,4.18,4.1825,4.1845,4.1869,4.1892,4.1914,4.1956,4.197,4.1972,4.2033,4.2057,4.2095,4.21,4.2113,4.2121,4.2116,4.2138,4.214,4.2142,4.215,4.2153,4.2122,4.2122,4.2122,4.2122,0,4.1757,4.1783,4.1795,4.1838,4.1859,4.1882,4.1915,4.1933,4.1949,4.1972,4.2006,4.2037,4.2073,4.2083,4.2098,4.2125,4.2125,4.2132,4.2135,4.2142,4.215,4.2154,4.2121,4.2121,4.2121,4.2122,0,0,4.1739,4.1799,4.1803,4.1825,4.1868,4.189,4.1916,4.1952,4.1968,4.1998,4.2022,4.2063,4.2071,4.2092,4.2111,4.2127,4.2142,4.2133,4.2135,4.2136,4.2177,4.2172,4.2175,4.2152,4.2152,4.2153,4.2175,0,4.1747,4.1795,4.1822,4.1859,4.1886,4.1912,4.1935,4.1965,4.1988,4.2015,4.2041,4.207,4.2077,4.2091,4.2109,4.2136,4.2151,4.2135,4.2176,4.2177,4.2168,4.2179,4.2173,4.2192,4.2178,4.2179,4.2179,0,4.1762,4.1794,4.1833,4.1878,4.189,4.191,4.1948,4.1973,4.2009,4.2025,4.2051,4.2071,4.2102,4.2103,4.2148,4.2136,4.2155,4.2172,4.2173,4.2178,4.2179,4.2186,4.2199,4.2202,4.2184,4.2184,4.2183,0,4.1748,4.18,4.1832,4.1849,4.1901,4.1916,4.1938,4.1974,4.1995,4.2029,4.2043,4.2079,4.2099,4.2127,4.2157,4.2155,4.22,4.2203,4.2216,4.2215,4.2224,4.2223,4.2241,4.2234,4.2234,4.2234,4.2234,0,4.1755,4.1779,4.1827,4.1846,4.1875,4.1908,4.1936,4.1961,4.1993,4.202,4.2044,4.2069,4.2106,4.2136,4.216,4.2195,4.2203,4.2218,4.2225,4.2217,4.2215,4.223,4.223,4.2235,4.2235,4.2234,4.2234,0,4.1743,4.1776,4.1813,4.1861,4.1874,4.1893,4.1935,4.1956,4.1982,4.2015,4.2025,4.2065,4.2102,4.2135,4.2183,4.22,4.2236,4.2243,4.2224,4.2228,4.224,4.2239,4.2268,4.2275,4.2262,4.2262,4.2262,0,4.1746,4.1765,4.1816,4.1836,4.1859,4.189,4.1913,4.1947,4.197,4.2016,4.2032,4.2071,4.2104,4.2162,4.2196,4.2234,4.2243,4.2251,4.2249,4.2242,4.2246,4.2245,4.2249,4.2251,4.2251,4.2251,4.2251,0,4.1747,4.1764,4.1796,4.1835,4.1862,4.1894,4.1927,4.1942,4.1983,4.2008,4.2047,4.2072,4.2124,4.2163,4.2206,4.2231,4.2249,4.2252,4.2257,4.225,4.2239,4.2247,4.2225,4.2251,4.2251,4.2251,4.2251,4.2251,4.1744,4.1764,4.1805,4.1841,4.187,4.1901,4.1925,4.1955,4.1988,4.2033,4.2051,4.2092,4.2132,4.2192,4.2217,4.225,4.2253,4.226,4.2262,4.2264,4.2264,4.2233,4.2257,4.2257,4.2258,4.2258,4.2258,0,4.1749,4.1777,4.181,4.1857,4.1886,4.1902,4.194,4.1964,4.1999,4.2035,4.2068,4.2115,4.2155,4.2194,4.2236,4.2255,4.2265,4.2266,4.2265,4.2271,4.2257,4.2249,4.2257,4.2257,4.2257,4.2257,4.2257,4.2257,4.1755,4.1791,4.1813,4.1865,4.1894,4.1934,4.1955,4.1985,4.2015,4.2066,4.2099,4.2125,4.2164,4.221,4.2248,4.2259,4.2274,4.2273,4.2286,4.2272,4.2271,4.2271,4.2264,4.2275,4.2275,4.2298,4.2298,4.2298]}]]